DLH4RP EDDF-EDDV

Flight info

Callsign DLH4RP
Flight time 0h 34m
Altitude 22000
Route MARUN3W MARUN Y153 WRB WRB1Z
Aircraft A320/M-SDE2E3FGIJ1LORWXYZ/HB1

Departure

Time 2026-04-16 23:37
Airport Frankfurt Main Airport (EDDF)

Arrival

Time 2026-04-17 00:12
Airport Hannover Airport (EDDV)
Time Latitude Longitude Altitude Speed Heading
2026-04-16 23:12 50.04416 8.56276 356 ft 0 kts 165°
2026-04-16 23:28 50.04424 8.56273 356 ft 4 kts 163°
2026-04-16 23:29 50.04449 8.56259 361 ft 4 kts 162°
2026-04-16 23:29 50.04473 8.56250 362 ft 4 kts 183°
2026-04-16 23:29 50.04490 8.56263 361 ft 4 kts 255°
2026-04-16 23:29 50.04496 8.56298 358 ft 3 kts 249°
2026-04-16 23:30 50.04505 8.56336 363 ft 4 kts 250°
2026-04-16 23:30 50.04514 8.56372 356 ft 1 kts 250°
2026-04-16 23:30 50.04514 8.56373 356 ft 0 kts 250°
2026-04-16 23:32 50.04498 8.56305 358 ft 13 kts 250°
2026-04-16 23:32 50.04465 8.56170 358 ft 13 kts 250°
2026-04-16 23:32 50.04433 8.56049 359 ft 11 kts 235°
2026-04-16 23:33 50.04367 8.56042 359 ft 10 kts 158°
2026-04-16 23:33 50.04304 8.56083 359 ft 10 kts 142°
2026-04-16 23:33 50.04279 8.56175 359 ft 9 kts 126°
2026-04-16 23:33 50.04225 8.56215 361 ft 9 kts 159°
2026-04-16 23:34 50.04167 8.56248 358 ft 11 kts 159°
2026-04-16 23:34 50.04142 8.56342 361 ft 10 kts 71°
2026-04-16 23:34 50.04165 8.56438 355 ft 10 kts 70°
2026-04-16 23:34 50.04195 8.56566 355 ft 15 kts 69°
2026-04-16 23:35 50.04239 8.56749 358 ft 21 kts 70°
2026-04-16 23:35 50.04294 8.56979 360 ft 24 kts 70°
2026-04-16 23:35 50.04354 8.57231 361 ft 26 kts 69°
2026-04-16 23:35 50.04412 8.57471 361 ft 15 kts 69°
2026-04-16 23:36 50.04409 8.57627 365 ft 15 kts 133°
2026-04-16 23:36 50.04320 8.57695 366 ft 9 kts 159°
2026-04-16 23:36 50.04270 8.57675 362 ft 7 kts 232°
2026-04-16 23:36 50.04235 8.57531 367 ft 36 kts 250°
2026-04-16 23:37 50.04046 8.56741 359 ft 117 kts 250°
2026-04-16 23:37 50.03695 8.55274 506 ft 158 kts 250°
2026-04-16 23:37 50.03312 8.53671 1282 ft 159 kts 249°
2026-04-16 23:37 50.02919 8.52038 1966 ft 168 kts 249°
2026-04-16 23:38 50.02413 8.50275 2386 ft 191 kts 236°
2026-04-16 23:38 50.01432 8.48770 2894 ft 207 kts 211°
2026-04-16 23:38 50.00070 8.48002 3792 ft 210 kts 189°
2026-04-16 23:38 49.98631 8.47674 4713 ft 212 kts 189°
2026-04-16 23:39 49.97153 8.47340 5633 ft 213 kts 189°
2026-04-16 23:39 49.95691 8.46908 6505 ft 218 kts 197°
2026-04-16 23:39 49.94157 8.46203 7010 ft 240 kts 198°
2026-04-16 23:39 49.92540 8.45357 7797 ft 249 kts 208°
2026-04-16 23:40 49.91237 8.43601 8698 ft 253 kts 237°
2026-04-16 23:40 49.90635 8.41047 9645 ft 257 kts 265°
2026-04-16 23:40 49.90919 8.38306 10547 ft 263 kts 294°
2026-04-16 23:40 49.92067 8.36107 11423 ft 268 kts 324°
2026-04-16 23:41 49.93752 8.34809 12201 ft 279 kts 335°
2026-04-16 23:41 49.95619 8.33592 12561 ft 303 kts 336°
2026-04-16 23:41 49.97644 8.32297 12874 ft 327 kts 336°
2026-04-16 23:41 49.99817 8.30910 13218 ft 347 kts 336°
2026-04-16 23:42 50.02109 8.29606 13925 ft 355 kts 343°
2026-04-16 23:42 50.04569 8.28998 14652 ft 362 kts 355°
2026-04-16 23:42 50.07098 8.29206 15377 ft 368 kts
2026-04-16 23:42 50.09596 8.30241 16103 ft 374 kts 16°
2026-04-16 23:43 50.12073 8.31538 16818 ft 378 kts 16°
2026-04-16 23:43 50.14540 8.32835 17522 ft 382 kts 15°
2026-04-16 23:43 50.17104 8.34181 18232 ft 386 kts 15°
2026-04-16 23:43 50.19625 8.35505 18872 ft 389 kts 15°
2026-04-16 23:44 50.22202 8.36860 19503 ft 393 kts 15°
2026-04-16 23:44 50.24801 8.38228 20147 ft 396 kts 15°
2026-04-16 23:44 50.27420 8.39611 20787 ft 399 kts 15°
2026-04-16 23:44 50.30057 8.41008 21405 ft 402 kts 15°
2026-04-16 23:45 50.32715 8.42438 22002 ft 405 kts 15°
2026-04-16 23:45 50.35384 8.43891 22607 ft 408 kts 15°
2026-04-16 23:45 50.38075 8.45369 23187 ft 411 kts 15°
2026-04-16 23:45 50.40785 8.46861 23745 ft 414 kts 15°
2026-04-16 23:46 50.43516 8.48361 24212 ft 417 kts 15°
2026-04-16 23:46 50.46261 8.49869 24659 ft 419 kts 15°
2026-04-16 23:46 50.49029 8.51355 25097 ft 421 kts 14°
2026-04-16 23:46 50.51828 8.52745 25530 ft 423 kts 12°
2026-04-16 23:47 50.54653 8.54078 25953 ft 425 kts 12°
2026-04-16 23:47 50.57497 8.55389 26397 ft 426 kts 11°
2026-04-16 23:47 50.60349 8.56707 26839 ft 428 kts 12°
2026-04-16 23:47 50.63213 8.58047 27244 ft 430 kts 12°
2026-04-16 23:48 50.66083 8.59413 27628 ft 432 kts 12°
2026-04-16 23:48 50.68970 8.60806 28007 ft 435 kts 12°
2026-04-16 23:48 50.71867 8.62215 28389 ft 437 kts 12°
2026-04-16 23:48 50.74778 8.63631 28756 ft 438 kts 12°
2026-04-16 23:49 50.77700 8.65047 29103 ft 440 kts 12°
2026-04-16 23:49 50.80634 8.66466 29427 ft 442 kts 12°
2026-04-16 23:49 50.83576 8.67961 29732 ft 446 kts 13°
2026-04-16 23:49 50.86498 8.69658 30034 ft 449 kts 15°
2026-04-16 23:50 50.89399 8.71504 30223 ft 450 kts 17°
2026-04-16 23:50 50.95104 8.75328 30247 ft 442 kts 17°
2026-04-16 23:51 51.00772 8.79048 30269 ft 440 kts 16°
2026-04-16 23:51 51.06451 8.82650 30248 ft 439 kts 16°
2026-04-16 23:52 51.12083 8.86221 30250 ft 439 kts 16°
2026-04-16 23:52 51.17751 8.89842 30249 ft 439 kts 16°
2026-04-16 23:53 51.23415 8.93487 30276 ft 439 kts 16°
2026-04-16 23:53 51.29077 8.97138 30269 ft 439 kts 16°
2026-04-16 23:54 51.34739 9.00794 30258 ft 439 kts 16°
2026-04-16 23:54 51.40398 9.04451 30244 ft 439 kts 16°
2026-04-16 23:55 51.46080 9.08144 30090 ft 442 kts 16°
2026-04-16 23:55 51.48936 9.10010 28692 ft 448 kts 17°
2026-04-16 23:55 51.51784 9.12303 26854 ft 468 kts 27°
2026-04-16 23:55 51.54537 9.15135 25813 ft 467 kts 28°
2026-04-16 23:56 51.57234 9.17914 25105 ft 456 kts 28°
2026-04-16 23:56 51.59891 9.20635 24287 ft 450 kts 28°
2026-04-16 23:56 51.62527 9.23324 23442 ft 446 kts 28°
2026-04-16 23:56 51.65126 9.25975 22666 ft 439 kts 28°
2026-04-16 23:57 51.67690 9.28595 21933 ft 433 kts 28°
2026-04-16 23:57 51.70213 9.31180 21245 ft 428 kts 29°
2026-04-16 23:57 51.72710 9.33743 20578 ft 422 kts 29°
2026-04-16 23:57 51.75172 9.36280 19945 ft 418 kts 29°
2026-04-16 23:58 51.77603 9.38791 19347 ft 412 kts 30°
2026-04-16 23:58 51.80009 9.41274 18784 ft 408 kts 30°
2026-04-16 23:58 51.82389 9.43733 18178 ft 404 kts 30°
2026-04-16 23:58 51.84739 9.46169 17623 ft 399 kts 30°
2026-04-16 23:59 51.87057 9.48574 17077 ft 393 kts 30°
2026-04-16 23:59 51.89345 9.50949 16523 ft 389 kts 30°
2026-04-16 23:59 51.91611 9.53301 15968 ft 385 kts 30°
2026-04-16 23:59 51.93860 9.55637 15393 ft 382 kts 30°
2026-04-17 00:00 51.96088 9.57956 14811 ft 380 kts 30°
2026-04-17 00:00 51.98306 9.60269 14218 ft 377 kts 30°
2026-04-17 00:00 52.00505 9.62566 13559 ft 376 kts 31°
2026-04-17 00:00 52.02693 9.64859 12927 ft 372 kts 31°
2026-04-17 00:01 52.04857 9.67131 12290 ft 369 kts 31°
2026-04-17 00:01 52.07000 9.69383 11639 ft 366 kts 31°
2026-04-17 00:01 52.09134 9.71624 11073 ft 361 kts 31°
2026-04-17 00:01 52.11170 9.73763 10945 ft 344 kts 31°
2026-04-17 00:02 52.13136 9.75829 10829 ft 329 kts 31°
2026-04-17 00:02 52.15016 9.77810 10708 ft 315 kts 31°
2026-04-17 00:02 52.16819 9.79712 10575 ft 303 kts 31°
2026-04-17 00:02 52.18570 9.81558 10311 ft 297 kts 31°
2026-04-17 00:03 52.20296 9.83378 10131 ft 295 kts 31°
2026-04-17 00:03 52.22015 9.85192 10012 ft 294 kts 31°
2026-04-17 00:03 52.23734 9.87009 9705 ft 296 kts 31°
2026-04-17 00:03 52.25462 9.88837 9221 ft 296 kts 31°
2026-04-17 00:04 52.27163 9.90697 8750 ft 295 kts 32°
2026-04-17 00:04 52.28850 9.92587 8392 ft 291 kts 32°
2026-04-17 00:04 52.30496 9.94450 7821 ft 286 kts 32°
2026-04-17 00:04 52.32122 9.96292 7144 ft 282 kts 32°
2026-04-17 00:05 52.33727 9.98116 6429 ft 280 kts 32°
2026-04-17 00:05 52.35309 9.99910 5838 ft 274 kts 32°
2026-04-17 00:05 52.36882 10.01686 5338 ft 275 kts 33°
2026-04-17 00:05 52.38502 10.03319 4914 ft 271 kts 22°
2026-04-17 00:06 52.40246 10.04146 4826 ft 252 kts
2026-04-17 00:06 52.41942 10.04334 4719 ft 238 kts
2026-04-17 00:06 52.43549 10.04384 4609 ft 224 kts 350°
2026-04-17 00:06 52.44893 10.03440 4516 ft 209 kts 318°
2026-04-17 00:07 52.45698 10.01540 4234 ft 206 kts 287°
2026-04-17 00:07 52.45866 9.99205 3899 ft 208 kts 272°
2026-04-17 00:07 52.45931 9.96827 3577 ft 209 kts 273°
2026-04-17 00:07 52.45995 9.94483 3244 ft 203 kts 273°
2026-04-17 00:08 52.46059 9.92222 2987 ft 193 kts 273°
2026-04-17 00:08 52.46123 9.90070 2707 ft 187 kts 273°
2026-04-17 00:08 52.46184 9.87993 2434 ft 177 kts 272°
2026-04-17 00:08 52.46240 9.86036 2203 ft 164 kts 272°
2026-04-17 00:09 52.46291 9.84250 1973 ft 151 kts 272°
2026-04-17 00:09 52.46334 9.82572 1749 ft 144 kts 272°
2026-04-17 00:09 52.46374 9.80942 1571 ft 143 kts 272°
2026-04-17 00:09 52.46408 9.79314 1379 ft 142 kts 272°
2026-04-17 00:10 52.46450 9.77687 1182 ft 143 kts 274°
2026-04-17 00:10 52.46499 9.76070 1008 ft 141 kts 273°
2026-04-17 00:10 52.46549 9.74485 790 ft 137 kts 274°
2026-04-17 00:10 52.46593 9.72932 592 ft 135 kts 273°
2026-04-17 00:11 52.46637 9.71410 378 ft 133 kts 274°
2026-04-17 00:11 52.46687 9.69907 212 ft 131 kts 274°
2026-04-17 00:11 52.46719 9.68937 182 ft 122 kts 273°
2026-04-17 00:11 52.46758 9.67761 180 ft 80 kts 272°
2026-04-17 00:12 52.46758 9.67194 180 ft 23 kts 239°
2026-04-17 00:12 52.46715 9.66947 182 ft 18 kts 255°
2026-04-17 00:12 52.46681 9.66738 180 ft 21 kts 252°
2026-04-17 00:12 52.46622 9.66669 179 ft 10 kts 184°
2026-04-17 00:13 52.46568 9.66730 179 ft 9 kts 121°
2026-04-17 00:13 52.46558 9.66831 180 ft 12 kts 91°
2026-04-17 00:13 52.46552 9.67015 181 ft 20 kts 94°
2026-04-17 00:13 52.46545 9.67250 185 ft 21 kts 92°
2026-04-17 00:14 52.46539 9.67508 183 ft 24 kts 91°
2026-04-17 00:14 52.46532 9.67798 194 ft 27 kts 92°
2026-04-17 00:14 52.46524 9.68080 179 ft 23 kts 92°
2026-04-17 00:14 52.46499 9.68293 181 ft 15 kts 110°
2026-04-17 00:15 52.46424 9.68436 179 ft 18 kts 142°
2026-04-17 00:15 52.46326 9.68559 181 ft 19 kts 143°
2026-04-17 00:15 52.46215 9.68698 180 ft 22 kts 142°
2026-04-17 00:15 52.46086 9.68864 178 ft 26 kts 142°
2026-04-17 00:16 52.45976 9.68999 177 ft 12 kts 144°
2026-04-17 00:16 52.45916 9.69086 177 ft 11 kts 121°
2026-04-17 00:16 52.45944 9.69188 177 ft 11 kts 31°
2026-04-17 00:16 52.45959 9.69235 177 ft 4 kts 81°
2026-04-17 00:17 52.45956 9.69278 177 ft 3 kts 106°
2026-04-17 00:17 52.45953 9.69296 178 ft 0 kts 103°
2026-04-17 00:17 52.45952 9.69301 178 ft 0 kts 103°